START_TIME,STEP,MOV.,P1,t_acc.,E44,t_acc.,A3,t_acc.,P10,t_acc.
1989-08-25T18:00:23.980 ,6,0,0.,1.2,0.,1.2,0.,1.2,0.,1.2
1989-08-25T18:00:25.180 ,6,0,0.,1.2,0.,1.2,0.,1.2,0.,1.2
1989-08-25T18:00:26.380 ,6,0,0.,1.2,0.,1.2,0.,1.2,0.,1.2
1989-08-25T18:00:27.580 ,6,0,0.,1.2,0.,1.2,0.,1.2,0.,1.2
1989-08-25T18:00:28.780 ,6,0,0.,1.2,0.,1.2,0.,1.2,0.,1.2
1989-08-25T18:00:29.980 ,6,0,0.,1.2,0.,1.2,0.,1.2,0.,1.2
1989-08-25T18:00:31.180 ,6,0,0.,1.2,0.,1.2,0.,1.2,0.,1.2
1989-08-25T18:00:32.380 ,6,0,0.,1.2,0.,1.2,0.,1.2,0.,1.2
1989-08-25T18:00:33.580 ,6,0,0.,1.2,0.,1.2,0.,1.2,0.,1.2
1989-08-25T18:00:34.780 ,6,0,0.,1.2,0.,1.2,0.,1.2,0.,1.2
1989-08-25T18:00:35.980 ,6,0,0.,1.2,0.,1.2,0.,1.2,0.,1.2
1989-08-25T18:00:37.180 ,6,0,0.,1.2,0.,1.2,0.,1.2,0.,1.2
1989-08-25T18:00:38.380 ,6,0,0.,1.2,0.,1.2,0.,1.2,0.,1.2
1989-08-25T18:00:39.580 ,6,0,0.,1.2,0.,1.2,0.,1.2,0.,1.2
1989-08-25T18:00:40.780 ,6,0,0.,1.2,0.,1.2,0.,1.2,0.,1.2
1989-08-25T18:00:41.980 ,6,0,0.,1.2,0.,1.2,0.,1.2,0.,1.2
1989-08-25T18:00:43.180 ,6,0,0.,1.2,0.,1.2,0.,1.2,0.,1.2
1989-08-25T18:00:44.380 ,6,0,0.,1.2,0.,1.2,0.,1.2,0.,1.2
1989-08-25T18:00:45.580 ,6,0,0.,1.2,0.,1.2,0.,1.2,0.,1.2
1989-08-25T18:00:46.780 ,6,0,0.,1.2,0.,1.2,0.,1.2,0.,1.2
1989-08-25T18:00:47.980 ,6,0,0.,1.2,0.,1.2,0.,1.2,0.,1.2
1989-08-25T18:00:49.180 ,6,0,0.,1.2,0.,1.2,0.,1.2,0.,1.2
1989-08-25T18:00:50.380 ,6,0,0.,1.2,0.,1.2,0.,1.2,0.,1.2
1989-08-25T18:00:51.580 ,6,0,0.,1.2,0.,1.2,0.,1.2,0.,1.2
1989-08-25T18:00:52.780 ,6,0,0.,1.2,0.,1.2,0.,1.2,0.,1.2
1989-08-25T18:00:53.980 ,6,0,0.,1.2,0.,1.2,0.,1.2,0.,1.2
1989-08-25T18:00:55.180 ,6,0,0.,1.2,0.,1.2,0.,1.2,0.,1.2
1989-08-25T18:00:56.380 ,6,0,0.,1.2,0.,1.2,0.,1.2,0.,1.2
1989-08-25T18:00:57.580 ,6,0,0.,1.2,0.,1.2,0.,1.2,0.,1.2
1989-08-25T18:00:58.780 ,6,0,0.,1.2,0.,1.2,0.,1.2,0.,1.2
1989-08-25T18:00:59.980 ,6,0,0.,1.2,0.,1.2,0.,1.2,0.,1.2
1989-08-25T18:01:01.180 ,6,0,0.,1.2,0.,1.2,0.,1.2,0.,1.2
1989-08-25T18:01:02.380 ,6,0,0.,1.2,0.,1.2,0.,1.2,0.,1.2
1989-08-25T18:01:03.580 ,6,0,0.,1.2,0.,1.2,0.,1.2,0.,1.2
1989-08-25T18:01:04.780 ,6,0,0.,1.2,0.,1.2,0.,1.2,0.,1.2
1989-08-25T18:01:05.980 ,6,0,1.,1.2,0.,1.2,0.,1.2,0.,1.2
1989-08-25T18:01:07.180 ,6,0,0.,1.2,0.,1.2,0.,1.2,0.,1.2
1989-08-25T18:01:08.380 ,6,0,0.,1.2,0.,1.2,0.,1.2,0.,1.2
1989-08-25T18:01:09.580 ,6,0,0.,1.2,0.,1.2,0.,1.2,0.,1.2
1989-08-25T18:01:10.780 ,6,0,0.,1.2,0.,1.2,0.,1.2,0.,1.2
1989-08-25T18:01:11.980 ,6,0,0.,1.2,0.,1.2,0.,1.2,0.,1.2
1989-08-25T18:01:13.180 ,6,0,1.,1.2,0.,1.2,0.,1.2,0.,1.2
1989-08-25T18:01:14.380 ,6,0,0.,1.2,0.,1.2,0.,1.2,0.,1.2
1989-08-25T18:01:15.580 ,6,0,0.,1.2,0.,1.2,0.,1.2,0.,1.2
1989-08-25T18:01:16.780 ,6,0,0.,1.2,0.,1.2,0.,1.2,0.,1.2
1989-08-25T18:01:17.980 ,6,0,0.,1.2,0.,1.2,0.,1.2,0.,1.2
1989-08-25T18:01:19.180 ,6,0,0.,1.2,0.,1.2,0.,1.2,0.,1.2
1989-08-25T18:01:20.380 ,6,0,0.,1.2,0.,1.2,0.,1.2,0.,1.2
1989-08-25T18:01:21.580 ,6,0,0.,1.2,0.,1.2,0.,1.2,0.,1.2
1989-08-25T18:01:22.780 ,6,0,0.,1.2,0.,1.2,0.,1.2,0.,1.2
1989-08-25T18:01:23.980 ,6,0,0.,1.2,0.,1.2,0.,1.2,0.,1.2
1989-08-25T18:01:25.180 ,6,0,0.,1.2,0.,1.2,0.,1.2,0.,1.2
1989-08-25T18:01:26.380 ,6,0,0.,1.2,0.,1.2,0.,1.2,0.,1.2
1989-08-25T18:01:27.580 ,6,0,0.,1.2,0.,1.2,0.,1.2,0.,1.2
1989-08-25T18:01:28.780 ,6,0,0.,1.2,0.,1.2,0.,1.2,0.,1.2
1989-08-25T18:01:29.980 ,6,0,0.,1.2,0.,1.2,0.,1.2,0.,1.2
1989-08-25T18:01:31.180 ,6,0,0.,1.2,0.,1.2,0.,1.2,0.,1.2
1989-08-25T18:01:32.380 ,6,0,0.,1.2,0.,1.2,0.,1.2,0.,1.2
1989-08-25T18:01:33.580 ,6,0,0.,1.2,0.,1.2,0.,1.2,0.,1.2
1989-08-25T18:01:34.780 ,6,0,0.,1.2,0.,1.2,0.,1.2,0.,1.2
1989-08-25T18:01:35.980 ,5,0,0.,1.2,0.,1.2,0.,1.2,0.,1.2
1989-08-25T18:01:37.180 ,5,0,0.,1.2,0.,1.2,11.,1.2,0.,1.2
1989-08-25T18:01:38.380 ,5,0,0.,1.2,0.,1.2,6.,1.2,0.,1.2
1989-08-25T18:01:39.580 ,5,0,0.,1.2,0.,1.2,5.,1.2,0.,1.2
1989-08-25T18:01:40.780 ,5,0,0.,1.2,0.,1.2,7.,1.2,0.,1.2
1989-08-25T18:01:41.980 ,5,0,0.,1.2,0.,1.2,4.,1.2,0.,1.2
1989-08-25T18:01:43.180 ,5,0,0.,1.2,0.,1.2,6.,1.2,0.,1.2
1989-08-25T18:01:44.380 ,5,0,0.,1.2,0.,1.2,8.,1.2,0.,1.2
1989-08-25T18:01:45.580 ,5,0,0.,1.2,0.,1.2,4.,1.2,0.,1.2
1989-08-25T18:01:46.780 ,5,0,0.,1.2,0.,1.2,3.,1.2,0.,1.2
1989-08-25T18:01:47.980 ,5,0,0.,1.2,0.,1.2,4.,1.2,0.,1.2
1989-08-25T18:01:49.180 ,5,0,0.,1.2,0.,1.2,0.,1.2,0.,1.2
1989-08-25T18:01:50.380 ,5,0,0.,1.2,0.,1.2,0.,1.2,0.,1.2
1989-08-25T18:01:51.580 ,5,0,1.,1.2,0.,1.2,0.,1.2,0.,1.2
1989-08-25T18:01:52.780 ,5,0,0.,1.2,0.,1.2,0.,1.2,0.,1.2
1989-08-25T18:01:53.980 ,5,0,0.,1.2,0.,1.2,0.,1.2,0.,1.2
1989-08-25T18:01:55.180 ,5,0,0.,1.2,0.,1.2,0.,1.2,0.,1.2
1989-08-25T18:01:56.380 ,5,0,0.,1.2,0.,1.2,0.,1.2,0.,1.2
1989-08-25T18:01:57.580 ,5,0,0.,1.2,0.,1.2,0.,1.2,0.,1.2
1989-08-25T18:01:58.780 ,5,0,0.,1.2,0.,1.2,0.,1.2,0.,1.2
1989-08-25T18:01:59.980 ,1,0,0.,1.2,0.,1.2,0.,1.2,0.,1.2
1989-08-25T18:02:01.180 ,1,0,0.,1.2,0.,1.2,0.,1.2,0.,1.2
1989-08-25T18:02:02.380 ,1,0,0.,1.2,0.,1.2,0.,1.2,0.,1.2
1989-08-25T18:02:03.580 ,1,0,0.,1.2,0.,1.2,0.,1.2,0.,1.2
1989-08-25T18:02:04.780 ,1,0,0.,1.2,0.,1.2,0.,1.2,0.,1.2
1989-08-25T18:02:05.980 ,1,0,0.,1.2,0.,1.2,0.,1.2,0.,1.2
1989-08-25T18:02:07.180 ,1,0,0.,1.2,0.,1.2,0.,1.2,0.,1.2
1989-08-25T18:02:08.380 ,1,0,0.,1.2,0.,1.2,0.,1.2,0.,1.2
1989-08-25T18:02:09.580 ,1,0,0.,1.2,0.,1.2,0.,1.2,0.,1.2
1989-08-25T18:02:10.780 ,1,0,0.,1.2,0.,1.2,0.,1.2,0.,1.2
1989-08-25T18:02:11.980 ,1,0,1.,1.2,0.,1.2,0.,1.2,0.,1.2
1989-08-25T18:02:13.180 ,1,0,0.,1.2,0.,1.2,0.,1.2,0.,1.2
1989-08-25T18:02:14.380 ,1,0,0.,1.2,0.,1.2,0.,1.2,0.,1.2
1989-08-25T18:02:15.580 ,1,0,0.,1.2,0.,1.2,0.,1.2,0.,1.2
1989-08-25T18:02:16.780 ,1,0,0.,1.2,0.,1.2,0.,1.2,0.,1.2
1989-08-25T18:02:17.980 ,1,0,0.,1.2,0.,1.2,0.,1.2,0.,1.2
1989-08-25T18:02:19.180 ,1,0,0.,1.2,0.,1.2,0.,1.2,0.,1.2
1989-08-25T18:02:20.380 ,1,0,0.,1.2,0.,1.2,0.,1.2,0.,1.2
1989-08-25T18:02:21.580 ,1,0,0.,1.2,0.,1.2,0.,1.2,0.,1.2
1989-08-25T18:02:22.780 ,1,0,0.,1.2,0.,1.2,0.,1.2,0.,1.2
1989-08-25T18:02:23.980 ,0,0,0.,1.2,0.,1.2,0.,1.2,0.,1.2
1989-08-25T18:02:25.180 ,0,0,1.,1.2,0.,1.2,0.,1.2,0.,1.2
1989-08-25T18:02:26.380 ,0,0,0.,1.2,0.,1.2,0.,1.2,0.,1.2
1989-08-25T18:02:27.580 ,0,0,1.,1.2,0.,1.2,0.,1.2,0.,1.2
1989-08-25T18:02:28.780 ,0,0,0.,1.2,0.,1.2,0.,1.2,0.,1.2
1989-08-25T18:02:29.980 ,0,0,0.,1.2,0.,1.2,0.,1.2,0.,1.2
1989-08-25T18:02:31.180 ,0,0,0.,1.2,0.,1.2,0.,1.2,0.,1.2
1989-08-25T18:02:32.380 ,0,0,0.,1.2,0.,1.2,0.,1.2,0.,1.2
1989-08-25T18:02:33.580 ,0,0,0.,1.2,0.,1.2,0.,1.2,0.,1.2
1989-08-25T18:02:34.780 ,0,0,0.,1.2,0.,1.2,0.,1.2,0.,1.2
1989-08-25T18:02:35.980 ,0,0,0.,1.2,0.,1.2,0.,1.2,0.,1.2
1989-08-25T18:02:37.180 ,0,0,0.,1.2,0.,1.2,0.,1.2,0.,1.2
1989-08-25T18:02:38.380 ,0,0,0.,1.2,0.,1.2,0.,1.2,0.,1.2
1989-08-25T18:02:39.580 ,0,0,0.,1.2,0.,1.2,0.,1.2,0.,1.2
1989-08-25T18:02:40.780 ,0,0,0.,1.2,0.,1.2,0.,1.2,0.,1.2
1989-08-25T18:02:41.980 ,0,0,0.,1.2,0.,1.2,0.,1.2,0.,1.2
1989-08-25T18:02:43.180 ,0,0,0.,1.2,0.,1.2,0.,1.2,0.,1.2
1989-08-25T18:02:44.380 ,0,0,0.,1.2,0.,1.2,0.,1.2,0.,1.2
1989-08-25T18:02:45.580 ,0,0,0.,1.2,0.,1.2,0.,1.2,0.,1.2
1989-08-25T18:02:46.780 ,0,0,0.,1.2,0.,1.2,0.,1.2,0.,1.2
1989-08-25T18:02:47.980 ,0,0,0.,1.2,0.,1.2,0.,1.2,0.,1.2
1989-08-25T18:02:49.180 ,0,0,0.,1.2,0.,1.2,0.,1.2,0.,1.2
1989-08-25T18:02:50.380 ,0,0,0.,1.2,0.,1.2,0.,1.2,0.,1.2
1989-08-25T18:02:51.580 ,0,0,0.,1.2,0.,1.2,0.,1.2,0.,1.2
1989-08-25T18:02:52.780 ,0,0,0.,1.2,0.,1.2,0.,1.2,0.,1.2
1989-08-25T18:02:53.980 ,0,0,0.,1.2,0.,1.2,0.,1.2,0.,1.2
1989-08-25T18:02:55.180 ,0,0,0.,1.2,0.,1.2,0.,1.2,0.,1.2
1989-08-25T18:02:56.380 ,0,0,0.,1.2,0.,1.2,0.,1.2,0.,1.2
1989-08-25T18:02:57.580 ,0,0,0.,1.2,0.,1.2,0.,1.2,0.,1.2
1989-08-25T18:02:58.780 ,0,0,0.,1.2,0.,1.2,0.,1.2,0.,1.2
1989-08-25T18:02:59.980 ,0,0,0.,1.2,0.,1.2,0.,1.2,0.,1.2
1989-08-25T18:03:01.180 ,0,0,0.,1.2,0.,1.2,0.,1.2,0.,1.2
1989-08-25T18:03:02.380 ,0,0,0.,1.2,0.,1.2,0.,1.2,0.,1.2
1989-08-25T18:03:03.580 ,0,0,0.,1.2,0.,1.2,0.,1.2,0.,1.2
1989-08-25T18:03:04.780 ,0,0,0.,1.2,0.,1.2,0.,1.2,0.,1.2
1989-08-25T18:03:05.980 ,0,0,0.,1.2,0.,1.2,0.,1.2,0.,1.2
1989-08-25T18:03:07.180 ,0,0,0.,1.2,0.,1.2,0.,1.2,0.,1.2
1989-08-25T18:03:08.380 ,0,0,0.,1.2,0.,1.2,0.,1.2,0.,1.2
1989-08-25T18:03:09.580 ,0,0,0.,1.2,0.,1.2,0.,1.2,0.,1.2
1989-08-25T18:03:10.780 ,0,0,0.,1.2,0.,1.2,0.,1.2,0.,1.2
1989-08-25T18:03:11.980 ,0,0,0.,1.2,0.,1.2,0.,1.2,0.,1.2
1989-08-25T18:03:13.180 ,0,0,1.,1.2,0.,1.2,0.,1.2,0.,1.2
1989-08-25T18:03:14.380 ,0,0,0.,1.2,0.,1.2,0.,1.2,0.,1.2
1989-08-25T18:03:15.580 ,0,0,0.,1.2,0.,1.2,0.,1.2,0.,1.2
1989-08-25T18:03:16.780 ,0,0,0.,1.2,0.,1.2,0.,1.2,0.,1.2
1989-08-25T18:03:17.980 ,0,0,0.,1.2,0.,1.2,0.,1.2,0.,1.2
1989-08-25T18:03:19.180 ,0,0,0.,1.2,0.,1.2,0.,1.2,0.,1.2
1989-08-25T18:03:20.380 ,0,0,0.,1.2,0.,1.2,0.,1.2,0.,1.2
1989-08-25T18:03:21.580 ,0,0,0.,1.2,0.,1.2,0.,1.2,0.,1.2
1989-08-25T18:03:22.780 ,0,0,0.,1.2,0.,1.2,0.,1.2,0.,1.2
1989-08-25T18:03:23.980 ,0,0,0.,1.2,0.,1.2,0.,1.2,0.,1.2
1989-08-25T18:03:25.180 ,0,0,0.,1.2,0.,1.2,0.,1.2,0.,1.2
1989-08-25T18:03:26.380 ,0,0,0.,1.2,0.,1.2,0.,1.2,0.,1.2
1989-08-25T18:03:27.580 ,0,0,0.,1.2,0.,1.2,0.,1.2,0.,1.2
1989-08-25T18:03:28.780 ,0,0,0.,1.2,0.,1.2,0.,1.2,0.,1.2
1989-08-25T18:03:29.980 ,0,0,0.,1.2,0.,1.2,0.,1.2,0.,1.2
1989-08-25T18:03:31.180 ,0,0,0.,1.2,0.,1.2,0.,1.2,0.,1.2
1989-08-25T18:03:32.380 ,0,0,0.,1.2,0.,1.2,0.,1.2,0.,1.2
1989-08-25T18:03:33.580 ,0,0,0.,1.2,0.,1.2,0.,1.2,0.,1.2
1989-08-25T18:03:34.780 ,0,0,0.,1.2,0.,1.2,0.,1.2,0.,1.2
1989-08-25T18:03:35.980 ,0,0,0.,1.2,0.,1.2,0.,1.2,0.,1.2
1989-08-25T18:03:37.180 ,0,0,0.,1.2,0.,1.2,0.,1.2,0.,1.2
1989-08-25T18:03:38.380 ,0,0,0.,1.2,0.,1.2,0.,1.2,0.,1.2
1989-08-25T18:03:39.580 ,0,0,0.,1.2,0.,1.2,0.,1.2,0.,1.2
1989-08-25T18:03:40.780 ,0,0,0.,1.2,0.,1.2,0.,1.2,0.,1.2
1989-08-25T18:03:41.980 ,0,0,0.,1.2,0.,1.2,0.,1.2,0.,1.2
1989-08-25T18:03:43.180 ,0,0,0.,1.2,0.,1.2,0.,1.2,0.,1.2
1989-08-25T18:03:44.380 ,0,0,0.,1.2,0.,1.2,0.,1.2,0.,1.2
1989-08-25T18:03:45.580 ,0,0,0.,1.2,0.,1.2,0.,1.2,0.,1.2
1989-08-25T18:03:46.780 ,0,0,0.,1.2,0.,1.2,0.,1.2,0.,1.2
1989-08-25T18:03:47.980 ,0,0,0.,1.2,0.,1.2,0.,1.2,0.,1.2
1989-08-25T18:03:49.180 ,0,0,0.,1.2,0.,1.2,0.,1.2,0.,1.2
1989-08-25T18:03:50.380 ,0,0,0.,1.2,0.,1.2,0.,1.2,0.,1.2
1989-08-25T18:03:51.580 ,0,0,0.,1.2,0.,1.2,0.,1.2,0.,1.2
1989-08-25T18:03:52.780 ,0,0,0.,1.2,0.,1.2,0.,1.2,0.,1.2
1989-08-25T18:03:53.980 ,0,0,0.,1.2,0.,1.2,0.,1.2,0.,1.2
1989-08-25T18:03:55.180 ,0,0,0.,1.2,0.,1.2,0.,1.2,0.,1.2
1989-08-25T18:03:56.380 ,0,0,0.,1.2,0.,1.2,0.,1.2,0.,1.2
1989-08-25T18:03:57.580 ,0,0,0.,1.2,0.,1.2,0.,1.2,0.,1.2
1989-08-25T18:03:58.780 ,0,0,0.,1.2,0.,1.2,0.,1.2,0.,1.2
1989-08-25T18:03:59.980 ,0,0,1.,1.2,0.,1.2,0.,1.2,0.,1.2
1989-08-25T18:04:01.180 ,0,0,0.,1.2,0.,1.2,0.,1.2,0.,1.2
1989-08-25T18:04:02.380 ,0,0,0.,1.2,0.,1.2,0.,1.2,0.,1.2
1989-08-25T18:04:03.580 ,0,0,0.,1.2,0.,1.2,0.,1.2,0.,1.2
1989-08-25T18:04:04.780 ,0,0,0.,1.2,0.,1.2,0.,1.2,0.,1.2
1989-08-25T18:04:05.980 ,0,0,0.,1.2,0.,1.2,0.,1.2,0.,1.2
1989-08-25T18:04:07.180 ,0,0,0.,1.2,0.,1.2,0.,1.2,0.,1.2
1989-08-25T18:04:08.380 ,0,0,0.,1.2,0.,1.2,0.,1.2,0.,1.2
1989-08-25T18:04:09.580 ,0,0,0.,1.2,0.,1.2,0.,1.2,0.,1.2
1989-08-25T18:04:10.780 ,0,0,0.,1.2,0.,1.2,0.,1.2,0.,1.2
1989-08-25T18:04:11.980 ,0,0,0.,1.2,0.,1.2,0.,1.2,0.,1.2
1989-08-25T18:04:13.180 ,0,0,0.,1.2,0.,1.2,0.,1.2,0.,1.2
1989-08-25T18:04:14.380 ,0,0,0.,1.2,0.,1.2,0.,1.2,0.,1.2
1989-08-25T18:04:15.580 ,0,0,0.,1.2,0.,1.2,0.,1.2,0.,1.2
1989-08-25T18:04:16.780 ,0,0,0.,1.2,0.,1.2,0.,1.2,0.,1.2
1989-08-25T18:04:17.980 ,0,0,0.,1.2,0.,1.2,0.,1.2,0.,1.2
1989-08-25T18:04:19.180 ,0,0,0.,1.2,0.,1.2,0.,1.2,0.,1.2
1989-08-25T18:04:20.380 ,0,0,0.,1.2,0.,1.2,0.,1.2,0.,1.2
1989-08-25T18:04:21.580 ,0,0,0.,1.2,0.,1.2,0.,1.2,0.,1.2
1989-08-25T18:04:22.780 ,0,0,0.,1.2,0.,1.2,0.,1.2,0.,1.2
1989-08-25T18:04:23.980 ,0,0,0.,1.2,0.,1.2,0.,1.2,0.,1.2
1989-08-25T18:04:25.180 ,0,0,0.,1.2,0.,1.2,0.,1.2,0.,1.2
1989-08-25T18:04:26.380 ,0,0,0.,1.2,0.,1.2,0.,1.2,0.,1.2
1989-08-25T18:04:27.580 ,0,0,0.,1.2,0.,1.2,0.,1.2,0.,1.2
1989-08-25T18:04:28.780 ,0,0,0.,1.2,0.,1.2,0.,1.2,0.,1.2
1989-08-25T18:04:29.980 ,0,0,0.,1.2,0.,1.2,0.,1.2,0.,1.2
1989-08-25T18:04:31.180 ,0,0,0.,1.2,0.,1.2,0.,1.2,0.,1.2
1989-08-25T18:04:32.380 ,0,0,0.,1.2,0.,1.2,0.,1.2,0.,1.2
1989-08-25T18:04:33.580 ,0,0,0.,1.2,0.,1.2,0.,1.2,0.,1.2
1989-08-25T18:04:34.780 ,0,0,0.,1.2,0.,1.2,0.,1.2,0.,1.2
1989-08-25T18:04:35.980 ,0,0,0.,1.2,0.,1.2,0.,1.2,0.,1.2
1989-08-25T18:04:37.180 ,0,0,0.,1.2,0.,1.2,0.,1.2,0.,1.2
1989-08-25T18:04:38.380 ,0,0,0.,1.2,0.,1.2,0.,1.2,0.,1.2
1989-08-25T18:04:39.580 ,0,0,0.,1.2,0.,1.2,0.,1.2,0.,1.2
1989-08-25T18:04:40.780 ,0,0,0.,1.2,0.,1.2,0.,1.2,0.,1.2
1989-08-25T18:04:41.980 ,0,0,0.,1.2,0.,1.2,0.,1.2,0.,1.2
1989-08-25T18:04:43.180 ,0,0,0.,1.2,0.,1.2,0.,1.2,0.,1.2
1989-08-25T18:04:44.380 ,0,0,0.,1.2,0.,1.2,0.,1.2,0.,1.2
1989-08-25T18:04:45.580 ,0,0,0.,1.2,0.,1.2,0.,1.2,0.,1.2
1989-08-25T18:04:46.780 ,0,0,0.,1.2,0.,1.2,0.,1.2,0.,1.2
1989-08-25T18:04:47.980 ,0,0,0.,1.2,0.,1.2,0.,1.2,0.,1.2
1989-08-25T18:04:49.180 ,0,0,0.,1.2,0.,1.2,0.,1.2,0.,1.2
1989-08-25T18:04:50.380 ,0,0,0.,1.2,0.,1.2,0.,1.2,0.,1.2
1989-08-25T18:04:51.580 ,0,0,0.,1.2,0.,1.2,0.,1.2,0.,1.2
1989-08-25T18:04:52.780 ,0,0,0.,1.2,0.,1.2,0.,1.2,0.,1.2
1989-08-25T18:04:53.980 ,0,0,0.,1.2,0.,1.2,0.,1.2,0.,1.2
1989-08-25T18:04:55.180 ,0,0,0.,1.2,0.,1.2,0.,1.2,0.,1.2
1989-08-25T18:04:56.380 ,0,0,0.,1.2,0.,1.2,0.,1.2,0.,1.2
1989-08-25T18:04:57.580 ,0,0,0.,1.2,0.,1.2,0.,1.2,0.,1.2
1989-08-25T18:04:58.780 ,0,0,0.,1.2,0.,1.2,0.,1.2,0.,1.2
1989-08-25T18:04:59.980 ,0,0,0.,1.2,0.,1.2,0.,1.2,0.,1.2
1989-08-25T18:05:01.180 ,0,0,0.,1.2,0.,1.2,0.,1.2,0.,1.2
1989-08-25T18:05:02.380 ,0,0,0.,1.2,0.,1.2,0.,1.2,0.,1.2
1989-08-25T18:05:03.580 ,0,0,0.,1.2,0.,1.2,0.,1.2,0.,1.2
1989-08-25T18:05:04.780 ,0,0,0.,1.2,0.,1.2,0.,1.2,0.,1.2
1989-08-25T18:05:05.980 ,0,0,0.,1.2,0.,1.2,0.,1.2,0.,1.2
1989-08-25T18:05:07.180 ,0,0,0.,1.2,0.,1.2,0.,1.2,0.,1.2
1989-08-25T18:05:08.380 ,0,0,0.,1.2,0.,1.2,0.,1.2,0.,1.2
1989-08-25T18:05:09.580 ,0,0,0.,1.2,0.,1.2,0.,1.2,0.,1.2
1989-08-25T18:05:10.780 ,0,0,0.,1.2,0.,1.2,0.,1.2,0.,1.2
1989-08-25T18:05:11.980 ,0,0,0.,1.2,0.,1.2,0.,1.2,0.,1.2
1989-08-25T18:05:13.180 ,0,0,0.,1.2,0.,1.2,0.,1.2,0.,1.2
1989-08-25T18:05:14.380 ,0,0,0.,1.2,0.,1.2,0.,1.2,0.,1.2
1989-08-25T18:05:15.580 ,0,0,0.,1.2,0.,1.2,0.,1.2,0.,1.2
1989-08-25T18:05:16.780 ,0,0,0.,1.2,0.,1.2,0.,1.2,0.,1.2
1989-08-25T18:05:17.980 ,0,0,0.,1.2,0.,1.2,0.,1.2,0.,1.2
1989-08-25T18:05:19.180 ,0,0,0.,1.2,0.,1.2,0.,1.2,0.,1.2
1989-08-25T18:05:20.380 ,0,0,0.,1.2,0.,1.2,0.,1.2,0.,1.2
1989-08-25T18:05:21.580 ,0,0,0.,1.2,0.,1.2,0.,1.2,0.,1.2
1989-08-25T18:05:22.780 ,0,0,0.,1.2,0.,1.2,0.,1.2,0.,1.2
1989-08-25T18:05:23.980 ,0,0,0.,1.2,0.,1.2,0.,1.2,0.,1.2
1989-08-25T18:05:25.180 ,0,0,0.,1.2,0.,1.2,0.,1.2,0.,1.2
1989-08-25T18:05:26.380 ,0,0,0.,1.2,0.,1.2,0.,1.2,0.,1.2
1989-08-25T18:05:27.580 ,0,0,0.,1.2,0.,1.2,0.,1.2,0.,1.2
1989-08-25T18:05:28.780 ,0,0,0.,1.2,0.,1.2,0.,1.2,0.,1.2
1989-08-25T18:05:29.980 ,0,0,0.,1.2,0.,1.2,0.,1.2,0.,1.2
1989-08-25T18:05:31.180 ,0,0,0.,1.2,0.,1.2,0.,1.2,0.,1.2
1989-08-25T18:05:32.380 ,0,0,0.,1.2,0.,1.2,0.,1.2,0.,1.2
1989-08-25T18:05:33.580 ,0,0,0.,1.2,0.,1.2,0.,1.2,0.,1.2
1989-08-25T18:05:34.780 ,0,0,0.,1.2,0.,1.2,0.,1.2,0.,1.2
1989-08-25T18:05:35.980 ,0,0,0.,1.2,0.,1.2,0.,1.2,0.,1.2
1989-08-25T18:05:37.180 ,0,0,0.,1.2,0.,1.2,0.,1.2,0.,1.2
1989-08-25T18:05:38.380 ,0,0,0.,1.2,0.,1.2,0.,1.2,0.,1.2
1989-08-25T18:05:39.580 ,0,0,0.,1.2,0.,1.2,0.,1.2,0.,1.2
1989-08-25T18:05:40.780 ,0,0,0.,1.2,0.,1.2,0.,1.2,0.,1.2
1989-08-25T18:05:41.980 ,0,0,0.,1.2,0.,1.2,0.,1.2,0.,1.2
1989-08-25T18:05:43.180 ,0,0,0.,1.2,0.,1.2,0.,1.2,0.,1.2
1989-08-25T18:05:44.380 ,0,0,0.,1.2,0.,1.2,0.,1.2,0.,1.2
1989-08-25T18:05:45.580 ,0,0,0.,1.2,0.,1.2,0.,1.2,0.,1.2
1989-08-25T18:05:46.780 ,0,0,0.,1.2,0.,1.2,0.,1.2,0.,1.2
1989-08-25T18:05:47.980 ,0,0,0.,1.2,0.,1.2,0.,1.2,0.,1.2
1989-08-25T18:05:49.180 ,0,0,0.,1.2,0.,1.2,0.,1.2,0.,1.2
1989-08-25T18:05:50.380 ,0,0,0.,1.2,0.,1.2,0.,1.2,0.,1.2
1989-08-25T18:05:51.580 ,0,0,0.,1.2,0.,1.2,0.,1.2,0.,1.2
1989-08-25T18:05:52.780 ,0,0,0.,1.2,0.,1.2,0.,1.2,0.,1.2
1989-08-25T18:05:53.980 ,0,0,0.,1.2,0.,1.2,0.,1.2,0.,1.2
1989-08-25T18:05:55.180 ,0,0,0.,1.2,0.,1.2,0.,1.2,0.,1.2
1989-08-25T18:05:56.380 ,0,0,0.,1.2,0.,1.2,0.,1.2,0.,1.2
1989-08-25T18:05:57.580 ,0,0,0.,1.2,0.,1.2,0.,1.2,0.,1.2
1989-08-25T18:05:58.780 ,0,0,0.,1.2,0.,1.2,0.,1.2,0.,1.2
1989-08-25T18:05:59.980 ,0,0,0.,1.2,0.,1.2,0.,1.2,0.,1.2
1989-08-25T18:06:01.180 ,0,0,0.,1.2,0.,1.2,0.,1.2,0.,1.2
1989-08-25T18:06:02.380 ,0,0,0.,1.2,0.,1.2,0.,1.2,0.,1.2
1989-08-25T18:06:03.580 ,0,0,0.,1.2,0.,1.2,0.,1.2,0.,1.2
1989-08-25T18:06:04.780 ,0,0,0.,1.2,0.,1.2,0.,1.2,0.,1.2
1989-08-25T18:06:05.980 ,0,0,0.,1.2,0.,1.2,0.,1.2,0.,1.2
1989-08-25T18:06:07.180 ,0,0,0.,1.2,0.,1.2,0.,1.2,0.,1.2
1989-08-25T18:06:08.380 ,0,0,0.,1.2,0.,1.2,0.,1.2,0.,1.2
1989-08-25T18:06:09.580 ,0,0,0.,1.2,0.,1.2,0.,1.2,0.,1.2
1989-08-25T18:06:10.780 ,0,0,0.,1.2,0.,1.2,0.,1.2,0.,1.2
1989-08-25T18:06:11.980 ,0,0,0.,1.2,0.,1.2,0.,1.2,0.,1.2
1989-08-25T18:06:13.180 ,0,0,0.,1.2,0.,1.2,0.,1.2,0.,1.2
1989-08-25T18:06:14.380 ,0,0,1.,1.2,0.,1.2,0.,1.2,0.,1.2
1989-08-25T18:06:15.580 ,0,0,0.,1.2,0.,1.2,0.,1.2,0.,1.2
1989-08-25T18:06:16.780 ,0,0,0.,1.2,0.,1.2,0.,1.2,0.,1.2
1989-08-25T18:06:17.980 ,0,0,0.,1.2,0.,1.2,0.,1.2,0.,1.2
1989-08-25T18:06:19.180 ,0,0,0.,1.2,0.,1.2,0.,1.2,0.,1.2
1989-08-25T18:06:20.380 ,0,0,0.,1.2,0.,1.2,0.,1.2,0.,1.2
1989-08-25T18:06:21.580 ,0,0,1.,1.2,0.,1.2,0.,1.2,0.,1.2
1989-08-25T18:06:22.780 ,0,0,0.,1.2,0.,1.2,0.,1.2,0.,1.2
1989-08-25T18:06:23.980 ,0,0,0.,1.2,0.,1.2,0.,1.2,0.,1.2
1989-08-25T18:06:25.180 ,0,0,0.,1.2,0.,1.2,0.,1.2,0.,1.2
1989-08-25T18:06:26.380 ,0,0,0.,1.2,0.,1.2,0.,1.2,0.,1.2
1989-08-25T18:06:27.580 ,0,0,1.,1.2,0.,1.2,0.,1.2,0.,1.2
1989-08-25T18:06:28.780 ,0,0,0.,1.2,0.,1.2,0.,1.2,0.,1.2
1989-08-25T18:06:29.980 ,0,0,0.,1.2,0.,1.2,0.,1.2,0.,1.2
1989-08-25T18:06:31.180 ,0,0,0.,1.2,0.,1.2,0.,1.2,0.,1.2
1989-08-25T18:06:32.380 ,0,0,0.,1.2,0.,1.2,0.,1.2,0.,1.2
1989-08-25T18:06:33.580 ,0,0,1.,1.2,0.,1.2,0.,1.2,0.,1.2
1989-08-25T18:06:34.780 ,0,0,0.,1.2,0.,1.2,0.,1.2,0.,1.2
1989-08-25T18:06:35.980 ,0,0,0.,1.2,0.,1.2,0.,1.2,0.,1.2
1989-08-25T18:06:37.180 ,0,0,0.,1.2,0.,1.2,0.,1.2,0.,1.2
1989-08-25T18:06:38.380 ,0,0,0.,1.2,0.,1.2,0.,1.2,0.,1.2
1989-08-25T18:06:39.580 ,0,0,0.,1.2,0.,1.2,0.,1.2,0.,1.2
1989-08-25T18:06:40.780 ,0,0,0.,1.2,0.,1.2,0.,1.2,0.,1.2
1989-08-25T18:06:41.980 ,0,0,0.,1.2,0.,1.2,0.,1.2,0.,1.2
1989-08-25T18:06:43.180 ,0,0,0.,1.2,0.,1.2,0.,1.2,0.,1.2
1989-08-25T18:06:44.380 ,0,0,0.,1.2,0.,1.2,0.,1.2,0.,1.2
1989-08-25T18:06:45.580 ,0,0,0.,1.2,0.,1.2,0.,1.2,0.,1.2
1989-08-25T18:06:46.780 ,0,0,0.,1.2,0.,1.2,0.,1.2,0.,1.2
1989-08-25T18:06:47.980 ,0,0,0.,1.2,0.,1.2,0.,1.2,0.,1.2
1989-08-25T18:06:49.180 ,0,0,0.,1.2,0.,1.2,0.,1.2,0.,1.2
1989-08-25T18:06:50.380 ,0,0,0.,1.2,0.,1.2,0.,1.2,0.,1.2
1989-08-25T18:06:51.580 ,0,0,0.,1.2,0.,1.2,0.,1.2,0.,1.2
1989-08-25T18:06:52.780 ,0,0,0.,1.2,0.,1.2,0.,1.2,0.,1.2
1989-08-25T18:06:53.980 ,0,0,0.,1.2,0.,1.2,0.,1.2,0.,1.2
1989-08-25T18:06:55.180 ,0,0,0.,1.2,0.,1.2,0.,1.2,0.,1.2
1989-08-25T18:06:56.380 ,0,0,0.,1.2,0.,1.2,0.,1.2,0.,1.2
1989-08-25T18:06:57.580 ,0,0,0.,1.2,0.,1.2,0.,1.2,0.,1.2
1989-08-25T18:06:58.780 ,0,0,0.,1.2,0.,1.2,0.,1.2,0.,1.2
1989-08-25T18:06:59.980 ,0,0,0.,1.2,0.,1.2,0.,1.2,0.,1.2
1989-08-25T18:07:01.180 ,0,0,0.,1.2,0.,1.2,0.,1.2,0.,1.2
1989-08-25T18:07:02.380 ,0,0,0.,1.2,0.,1.2,0.,1.2,0.,1.2
1989-08-25T18:07:03.580 ,0,0,0.,1.2,0.,1.2,0.,1.2,0.,1.2
1989-08-25T18:07:04.780 ,0,0,0.,1.2,0.,1.2,0.,1.2,0.,1.2
1989-08-25T18:07:05.980 ,0,0,0.,1.2,0.,1.2,0.,1.2,0.,1.2
1989-08-25T18:07:07.180 ,0,0,0.,1.2,0.,1.2,0.,1.2,0.,1.2
1989-08-25T18:07:08.380 ,0,0,0.,1.2,0.,1.2,0.,1.2,0.,1.2
1989-08-25T18:07:09.580 ,0,0,0.,1.2,0.,1.2,0.,1.2,0.,1.2
1989-08-25T18:07:10.780 ,0,0,0.,1.2,0.,1.2,0.,1.2,0.,1.2
1989-08-25T18:07:11.980 ,4,0,0.,1.2,0.,1.2,0.,1.2,0.,1.2
1989-08-25T18:07:13.180 ,4,0,0.,1.2,0.,1.2,0.,1.2,0.,1.2
1989-08-25T18:07:14.380 ,4,0,0.,1.2,0.,1.2,0.,1.2,0.,1.2
1989-08-25T18:07:15.580 ,4,0,0.,1.2,0.,1.2,0.,1.2,0.,1.2
1989-08-25T18:07:16.780 ,4,0,0.,1.2,0.,1.2,0.,1.2,0.,1.2
1989-08-25T18:07:17.980 ,4,0,0.,1.2,0.,1.2,0.,1.2,0.,1.2
1989-08-25T18:07:19.180 ,4,0,0.,1.2,0.,1.2,0.,1.2,0.,1.2
1989-08-25T18:07:20.380 ,4,0,0.,1.2,0.,1.2,0.,1.2,0.,1.2
1989-08-25T18:07:21.580 ,4,0,0.,1.2,0.,1.2,0.,1.2,0.,1.2
1989-08-25T18:07:22.780 ,4,0,0.,1.2,0.,1.2,0.,1.2,0.,1.2
1989-08-25T18:07:23.980 ,4,0,0.,1.2,0.,1.2,0.,1.2,0.,1.2
1989-08-25T18:07:25.180 ,4,0,0.,1.2,0.,1.2,0.,1.2,0.,1.2
1989-08-25T18:07:26.380 ,4,0,0.,1.2,0.,1.2,0.,1.2,0.,1.2
1989-08-25T18:07:27.580 ,4,0,0.,1.2,0.,1.2,0.,1.2,0.,1.2
1989-08-25T18:07:28.780 ,4,0,0.,1.2,0.,1.2,0.,1.2,0.,1.2
1989-08-25T18:07:29.980 ,4,0,0.,1.2,0.,1.2,0.,1.2,0.,1.2
1989-08-25T18:07:31.180 ,4,0,0.,1.2,0.,1.2,0.,1.2,0.,1.2
1989-08-25T18:07:32.380 ,4,0,0.,1.2,0.,1.2,0.,1.2,0.,1.2
1989-08-25T18:07:33.580 ,4,0,0.,1.2,0.,1.2,0.,1.2,0.,1.2
1989-08-25T18:07:34.780 ,4,0,0.,1.2,0.,1.2,0.,1.2,0.,1.2
1989-08-25T18:07:35.980 ,7,0,0.,1.2,0.,1.2,0.,1.2,0.,1.2
1989-08-25T18:07:37.180 ,7,0,0.,1.2,0.,1.2,0.,1.2,0.,1.2
1989-08-25T18:07:38.380 ,7,0,0.,1.2,0.,1.2,0.,1.2,0.,1.2
1989-08-25T18:07:39.580 ,7,0,0.,1.2,0.,1.2,0.,1.2,0.,1.2
1989-08-25T18:07:40.780 ,7,0,0.,1.2,0.,1.2,0.,1.2,0.,1.2
1989-08-25T18:07:41.980 ,7,0,0.,1.2,0.,1.2,0.,1.2,0.,1.2
1989-08-25T18:07:43.180 ,7,0,0.,1.2,0.,1.2,0.,1.2,0.,1.2
1989-08-25T18:07:44.380 ,7,0,0.,1.2,0.,1.2,0.,1.2,0.,1.2
1989-08-25T18:07:45.580 ,7,0,0.,1.2,0.,1.2,0.,1.2,0.,1.2
1989-08-25T18:07:46.780 ,7,0,0.,1.2,0.,1.2,0.,1.2,0.,1.2
1989-08-25T18:07:47.980 ,7,0,0.,1.2,0.,1.2,1.,1.2,0.,1.2
1989-08-25T18:07:49.180 ,7,0,0.,1.2,0.,1.2,4.,1.2,0.,1.2
1989-08-25T18:07:50.380 ,7,0,0.,1.2,0.,1.2,2.,1.2,0.,1.2
1989-08-25T18:07:51.580 ,7,0,0.,1.2,0.,1.2,4.,1.2,0.,1.2
1989-08-25T18:07:52.780 ,7,0,0.,1.2,0.,1.2,6.,1.2,0.,1.2
1989-08-25T18:07:53.980 ,7,0,0.,1.2,0.,1.2,6.,1.2,0.,1.2
1989-08-25T18:07:55.180 ,7,0,0.,1.2,0.,1.2,6.,1.2,0.,1.2
1989-08-25T18:07:56.380 ,7,0,0.,1.2,0.,1.2,5.,1.2,0.,1.2
1989-08-25T18:07:57.580 ,7,0,0.,1.2,0.,1.2,7.,1.2,0.,1.2
1989-08-25T18:07:58.780 ,7,0,0.,1.2,0.,1.2,10.,1.2,0.,1.2
1989-08-25T18:07:59.980 ,6,0,0.,1.2,0.,1.2,5.,1.2,0.,1.2
1989-08-25T18:08:01.180 ,6,0,0.,1.2,0.,1.2,0.,1.2,0.,1.2
1989-08-25T18:08:02.380 ,6,0,0.,1.2,0.,1.2,0.,1.2,0.,1.2
1989-08-25T18:08:03.580 ,6,0,0.,1.2,0.,1.2,0.,1.2,0.,1.2
1989-08-25T18:08:04.780 ,6,0,0.,1.2,0.,1.2,0.,1.2,0.,1.2
1989-08-25T18:08:05.980 ,6,0,0.,1.2,0.,1.2,0.,1.2,0.,1.2
1989-08-25T18:08:07.180 ,6,0,0.,1.2,0.,1.2,0.,1.2,0.,1.2
1989-08-25T18:08:08.380 ,6,0,0.,1.2,0.,1.2,0.,1.2,0.,1.2
1989-08-25T18:08:09.580 ,6,0,0.,1.2,0.,1.2,0.,1.2,0.,1.2
1989-08-25T18:08:10.780 ,6,0,0.,1.2,0.,1.2,0.,1.2,0.,1.2
1989-08-25T18:08:11.980 ,6,0,0.,1.2,0.,1.2,0.,1.2,0.,1.2
1989-08-25T18:08:13.180 ,6,0,0.,1.2,0.,1.2,0.,1.2,0.,1.2
1989-08-25T18:08:14.380 ,6,0,0.,1.2,0.,1.2,0.,1.2,0.,1.2
1989-08-25T18:08:15.580 ,6,0,0.,1.2,0.,1.2,0.,1.2,0.,1.2
1989-08-25T18:08:16.780 ,6,0,0.,1.2,0.,1.2,0.,1.2,0.,1.2
1989-08-25T18:08:17.980 ,6,0,0.,1.2,0.,1.2,0.,1.2,0.,1.2
1989-08-25T18:08:19.180 ,6,0,1.,1.2,0.,1.2,0.,1.2,0.,1.2
1989-08-25T18:08:20.380 ,6,0,0.,1.2,0.,1.2,0.,1.2,0.,1.2
1989-08-25T18:08:21.580 ,6,0,0.,1.2,0.,1.2,0.,1.2,0.,1.2
1989-08-25T18:08:22.780 ,6,0,0.,1.2,0.,1.2,0.,1.2,0.,1.2
1989-08-25T18:08:23.980 ,6,0,0.,1.2,0.,1.2,0.,1.2,0.,1.2
1989-08-25T18:08:25.180 ,6,0,0.,1.2,0.,1.2,0.,1.2,0.,1.2
1989-08-25T18:08:26.380 ,6,0,0.,1.2,0.,1.2,0.,1.2,0.,1.2
1989-08-25T18:08:27.580 ,6,0,0.,1.2,0.,1.2,0.,1.2,0.,1.2
1989-08-25T18:08:28.780 ,6,0,0.,1.2,0.,1.2,0.,1.2,0.,1.2
1989-08-25T18:08:29.980 ,6,0,0.,1.2,0.,1.2,0.,1.2,0.,1.2
1989-08-25T18:08:31.180 ,6,0,0.,1.2,0.,1.2,0.,1.2,0.,1.2
1989-08-25T18:08:32.380 ,6,0,0.,1.2,0.,1.2,0.,1.2,0.,1.2
1989-08-25T18:08:33.580 ,6,0,0.,1.2,0.,1.2,0.,1.2,0.,1.2
1989-08-25T18:08:34.780 ,6,0,0.,1.2,0.,1.2,0.,1.2,0.,1.2
1989-08-25T18:08:35.980 ,6,0,0.,1.2,0.,1.2,0.,1.2,0.,1.2
1989-08-25T18:08:37.180 ,6,0,0.,1.2,0.,1.2,0.,1.2,0.,1.2